Regional Weather Roundup
Issued by NWS

Home | Current Version | Previous Version | Text Only | Print | Product List | Glossary Off
Versions: 1 2 3 4 5 6 7 8 9 10 11 12 13 14 15 16 17 18 19 20 21 22 23 24 25 26 27 28 29 30 31 32 33 34 35 36 37 38 39 40 41 42 43 44 45 46 47 48 49 50

000
ASUS43 KTOP 200708
RWRKS

WEATHER ROUNDUP FOR KANSAS
NATIONAL WEATHER SERVICE GOODLAND KS
200 AM CDT WED AUG 20 2014

NOTE:  "FAIR" INDICATES FEW OR NO CLOUDS BELOW 12,000 FEET WITH NO
SIGNIFICANT WEATHER AND/OR OBSTRUCTIONS TO VISIBILITY.

KSZ001>006-013>018-027>032-041>047-200800-
NORTHWEST KANSAS

CITY           SKY/WX    TMP DP  RH WIND       PRES   REMARKS
GOODLAND       CLOUDY    76  58  53 S13       29.84F
HAYS           PTCLDY    79  61  53 S16G23    29.81S
HILL CITY      CLOUDY    79  62  56 W10       29.80R
RUSSELL        PTCLDY    78  61  55 S20G28    29.79F
$$

KSZ061>065-074>080-084>089-200800-
SOUTHWEST KANSAS

CITY           SKY/WX    TMP DP  RH WIND       PRES   REMARKS
DODGE CITY     CLEAR     74  60  61 S14       29.86S
ELKHART          N/A     72  60  66 S12         N/A
GARDEN CITY    CLEAR     73  62  68 S13       29.85F
GREAT BEND     PTCLDY    79  61  53 S18       29.83S
LIBERAL        CLEAR     75  59  57 S16       29.89F
PRATT          CLEAR     75  59  57 S12       29.87S
$$

KSZ066>073-081>083-090>101-200800-
SOUTHEAST KANSAS

CITY           SKY/WX    TMP DP  RH WIND       PRES   REMARKS
CHANUTE        CLEAR     75  70  84 S7        29.87S
COFFEYVILLE    CLEAR     78  71  79 S9        29.87R
HUTCHINSON     CLEAR     78  67  68 S10       29.85S
MEDICINE LODGE   N/A     76  63  64 S8        29.84F
NEWTON         CLEAR     79  64  61 S16G23    29.89S
PARSONS        CLEAR     77  70  79 S5        29.89R
WICHITA INTL   PTCLDY    77  68  73 S8        29.85S
WICHITA JABRA  CLEAR     79  68  69 S12G20    29.86S
WICHITA MCCONL CLEAR     77  71  81 S12       29.87R
WINFIELD       CLEAR     76  69  79 S9        29.88S
$$

KSZ007>012-019>026-033>040-048>060-102>105-200800-
NORTHEAST KANSAS

CITY           SKY/WX    TMP DP  RH WIND       PRES   REMARKS
CONCORDIA      MOCLDY    78  68  71 S15G24    29.79S
EMPORIA        CLEAR     74  67  78 S9        29.85S
LAWRENCE       CLEAR     80  69  69 S8        29.83R
MANHATTAN      CLEAR     79  68  69 SW8       29.81S
MARYSVILLE     PTCLDY    79  68  69 S9        29.80F
OLATHE IND     CLEAR     76  69  79 S10       29.85S
OLATHE EXE     CLEAR     76  70  82 S8        29.84S
SALINA         PTCLDY    80  68  66 S12       29.81S
TOPEKA BILLARD CLEAR     80  68  66 S7        29.82S
TOPEKA FORBES  CLEAR     77  67  71 SW9       29.83S
$$



USA.gov is the U.S. government's official web portal to all federal, state and local government web resources and services.